Terug naar catalogus

COSMOS 506

ActiefMilitairLEO
NORAD 6119·PAYLOAD·🇷🇺 Russia

Gelanceerd Jul 20, 1972 vanaf Plesetsk Cosmodrome

Loading…

Volgende Passages (komende 24 uur)

TLE

VersSource: Space-Track

Epoch: Sep 14, 2026, 12:17 UTC

1 06119U 72057C   26257.51245471 -.00000015  00000-0  97647-5 0  9994
2 06119  74.0244 272.1715 0073742 272.0589 161.3304 12.56208574483239

Volg COSMOS 506 in realtime met AllMySat

Download on the App Store